Weather Roundup
Issued by NWS Springfield, MO

Home | Current Version | Previous Version | Text Only | Print | Product List | Glossary On
Versions: 1 2 3 4 5 6 7 8 9 10 11 12 13 14 15 16 17 18 19 20 21 22 23 24 25 26 27 28 29 30 31 32 33 34 35 36 37 38 39 40 41 42 43 44 45 46 47 48 49 50
000
NZUS99 KSGF 300357
HRRSGF

HOURLY WEATHER
NATIONAL WEATHER SERVICE SPRINGFIELD MO
1100 PM CDT MON AUG 29 2016

......SGF CWA......

CITY           SKY/WX    TMP DP  RH WIND       PRES   REMARKS
SPRINGFIELD    PTCLDY    76  69  79 SE3       30.16R
JOPLIN         CLEAR     74  69  85 CALM      30.15S
WEST PLAINS    CLEAR     74  70  87 NE3       30.18R
ROLLA          CLEAR     73  70  90 CALM      30.16R

......SURROUNDING SGF CWA......

CITY           SKY/WX    TMP DP  RH WIND       PRES   REMARKS
CHANUTE        LGT RAIN  75  71  87 CALM      30.15F
PARSONS        LGT RAIN  73  70  90 CALM      30.16R
COFFEYVILLE    CLOUDY    73  71  93 CALM      30.14R
EMPORIA        CLOUDY    75  72  90 S3        30.16S
HARRISON AR    CLOUDY    71  70  96 CALM      30.17R

......KANSAS AND MISSOURI......

CITY           SKY/WX    TMP DP  RH WIND       PRES   REMARKS
KANSAS CTY INT PTCLDY    79  69  71 SE5       30.16R
SEDALIA        CLEAR     78  73  84 CALM      30.17R
ST JOSEPH      MOCLDY    74  71  91 N5        30.17R
ST LOUIS       PTCLDY    83  74  74 E7        30.16R
WICHITA        MOCLDY    78  68  71 CALM      30.15S
TOPEKA         PTCLDY    78  74  87 CALM      30.15S
OLATHE         PTCLDY    79  72  79 CALM      30.16S

......TENNESSEE......

CITY           SKY/WX    TMP DP  RH WIND       PRES   REMARKS
MEMPHIS        NOT AVBL
NASHVILLE      CLEAR     81  73  76 NE8       30.12R

......ARKANSAS.......

CITY           SKY/WX    TMP DP  RH WIND       PRES   REMARKS
FAYETTEVILLE   CLOUDY    74  72  93 CALM      30.16R
FT SMITH       CLOUDY    76  69  79 E3        30.09R
LITTLE ROCK    CLEAR     81  70  69 CALM      30.06R

......OKLAHOMA.......

CITY           SKY/WX    TMP DP  RH WIND       PRES   REMARKS
TULSA          CLOUDY    78  71  79 E5        30.11S
PONCA CITY     CLOUDY    76  71  85 CALM      30.13S
MCALESTER      PTCLDY    80  69  69 E7        30.10R
OKLAHOMA CITY  PTCLDY    77  70  79 NE8       30.13R

......IOWA............

CITY           SKY/WX    TMP DP  RH WIND       PRES   REMARKS
DES MOINES     NOT AVBL
QUAD CITIES    MOCLDY    73  70  90 E6        30.16S

......ILLINOIS........

CITY           SKY/WX    TMP DP  RH WIND       PRES   REMARKS
QUINCY         NOT AVBL
CHICAGO        CLOUDY    74  72  93 CALM      30.18R FOG




USA.gov is the U.S. government's official web portal to all federal, state and local government web resources and services.